,,PA_Meas_PMT16A,,PR_Meas_QMR101_102,,RH_Meas_QMH101,,SR_Meas_QMS101,,TA_Meas_QMH101,,GenWind,,GenWind,
time,status,PA,status,PR,status,RH,status,SR,status,TA,status,DirAvg,status,SpdAvg,
2009-09-10, 00:00:04,VALID,918.173,VALID,0,VALID,93.6003,VALID,0,VALID,19.8378,VALID,144,VALID,0.913281,
2009-09-10, 00:01:04,VALID,918.2,VALID,0,VALID,94.0272,VALID,0,VALID,19.7988,VALID,144,VALID,0.905859,
2009-09-10, 00:02:04,VALID,918.212,VALID,0,VALID,94.4541,VALID,0,VALID,19.7778,VALID,144,VALID,1.21797,
2009-09-10, 00:03:04,VALID,918.206,VALID,0,VALID,94.3321,VALID,0,VALID,19.7793,VALID,144,VALID,0.951953,
2009-09-10, 00:04:04,VALID,918.215,VALID,0,VALID,94.4313,VALID,0,VALID,19.7403,VALID,144,VALID,1.1832,
2009-09-10, 00:05:04,VALID,918.223,VALID,0,VALID,94.1873,VALID,0,VALID,19.6803,VALID,117,VALID,0.930859,
2009-09-10, 00:06:04,VALID,918.203,VALID,0,VALID,94.6447,VALID,0,VALID,19.7013,VALID,117,VALID,0.926562,
2009-09-10, 00:07:04,VALID,918.183,VALID,0,VALID,94.8658,VALID,0,VALID,19.6608,VALID,117,VALID,0.965625,
2009-09-10, 00:08:04,VALID,918.204,VALID,0,VALID,94.8582,VALID,0,VALID,19.6413,VALID,117,VALID,0.937109,
2009-09-10, 00:09:04,VALID,918.197,VALID,0,VALID,94.7362,VALID,0,VALID,19.5828,VALID,117,VALID,0.775781,
2009-09-10, 00:10:04,VALID,918.213,VALID,0,VALID,95.4909,VALID,0,VALID,19.6428,VALID,117,VALID,1.19297,
2009-09-10, 00:11:04,VALID,918.209,VALID,0,VALID,95.1783,VALID,0,VALID,19.6038,VALID,117,VALID,0.880859,
2009-09-10, 00:12:04,VALID,918.211,VALID,0,VALID,95.186,VALID,0,VALID,19.5648,VALID,117,VALID,0.733203,
2009-09-10, 00:13:04,VALID,918.239,VALID,0,VALID,94.8124,VALID,0,VALID,19.5258,VALID,117,VALID,0.472266,
2009-09-10, 00:14:04,VALID,918.205,VALID,0,VALID,95.0945,VALID,0,VALID,19.4853,VALID,117,VALID,0.528906,
2009-09-10, 00:15:04,VALID,918.196,VALID,0,VALID,95.3918,VALID,0,VALID,19.4853,VALID,117,VALID,0.555469,
2009-09-10, 00:16:04,VALID,918.15,VALID,0,VALID,95.6434,VALID,0,VALID,19.5063,VALID,117,VALID,0.569141,
2009-09-10, 00:17:04,VALID,918.09,VALID,0,VALID,95.7196,VALID,0,VALID,19.4868,VALID,117,VALID,0.674219,
2009-09-10, 00:18:04,VALID,918.019,VALID,0,VALID,95.9102,VALID,0,VALID,19.5048,VALID,117,VALID,0.793359,
2009-09-10, 00:19:04,VALID,918.019,VALID,0,VALID,96.0322,VALID,0,VALID,19.5648,VALID,117,VALID,0.790625,
2009-09-10, 00:20:04,VALID,917.962,VALID,0,VALID,96.0093,VALID,0,VALID,19.6038,VALID,117,VALID,0.760156,
2009-09-10, 00:21:04,VALID,917.944,VALID,0,VALID,95.8416,VALID,0,VALID,19.5843,VALID,117,VALID,0.665234,
2009-09-10, 00:22:04,VALID,917.964,VALID,0,VALID,95.6434,VALID,0,VALID,19.5843,VALID,117,VALID,0.660937,
2009-09-10, 00:23:04,VALID,917.993,VALID,0,VALID,95.712,VALID,0,VALID,19.6233,VALID,117,VALID,0.761719,
2009-09-10, 00:24:04,VALID,918.036,VALID,0,VALID,95.4909,VALID,0,VALID,19.6233,VALID,117,VALID,0.740234,
2009-09-10, 00:25:04,VALID,918.039,VALID,0,VALID,95.3994,VALID,0,VALID,19.6038,VALID,117,VALID,0.846875,
2009-09-10, 00:26:04,VALID,918.104,VALID,0,VALID,95.3308,VALID,0,VALID,19.6038,VALID,117,VALID,0.774609,
2009-09-10, 00:27:04,VALID,918.138,VALID,0,VALID,95.1783,VALID,0,VALID,19.6038,VALID,117,VALID,0.992578,
2009-09-10, 00:28:04,VALID,918.176,VALID,0,VALID,95.0564,VALID,0,VALID,19.5843,VALID,117,VALID,1,
2009-09-10, 00:29:04,VALID,918.166,VALID,0,VALID,95.1936,VALID,0,VALID,19.5843,VALID,117,VALID,0.991797,
2009-09-10, 00:30:04,VALID,918.223,VALID,0,VALID,95.3003,VALID,0,VALID,19.6053,VALID,117,VALID,1.04023,
2009-09-10, 00:31:04,VALID,918.249,VALID,0,VALID,94.5227,VALID,0,VALID,19.4883,VALID,117,VALID,1.13477,
2009-09-10, 00:32:04,VALID,918.278,VALID,0,VALID,95.2165,VALID,0,VALID,19.4673,VALID,117,VALID,1.28164,
2009-09-10, 00:33:04,VALID,918.305,VALID,0,VALID,95.125,VALID,0,VALID,19.4298,VALID,117,VALID,0.960156,
2009-09-10, 00:34:04,VALID,918.315,VALID,0,VALID,95.1402,VALID,0,VALID,19.3503,VALID,117,VALID,0.842188,
2009-09-10, 00:35:04,VALID,918.308,VALID,0,VALID,95.3308,VALID,0,VALID,19.3113,VALID,117,VALID,0.770312,
2009-09-10, 00:36:04,VALID,918.309,VALID,0,VALID,95.529,VALID,0,VALID,19.2723,VALID,117,VALID,1.04844,
2009-09-10, 00:37:04,VALID,918.34,VALID,0,VALID,95.6891,VALID,0,VALID,19.2528,VALID,117,VALID,0.845312,
2009-09-10, 00:38:04,VALID,918.322,VALID,0,VALID,95.8035,VALID,0,VALID,19.2334,VALID,117,VALID,0.877344,
2009-09-10, 00:39:04,VALID,918.306,VALID,0,VALID,95.9102,VALID,0,VALID,19.2334,VALID,117,VALID,0.696875,
2009-09-10, 00:40:04,VALID,918.28,VALID,0,VALID,96.0932,VALID,0,VALID,19.2738,VALID,117,VALID,0.937891,
2009-09-10, 00:41:04,VALID,918.274,VALID,0,VALID,96.2228,VALID,0,VALID,19.2723,VALID,117,VALID,0.798828,
2009-09-10, 00:42:04,VALID,918.229,VALID,0,VALID,96.177,VALID,0,VALID,19.2528,VALID,117,VALID,0.571484,
2009-09-10, 00:43:04,VALID,918.171,VALID,0,VALID,96.2304,VALID,0,VALID,19.2528,VALID,117,VALID,0.421484,
2009-09-10, 00:44:04,VALID,918.139,VALID,0,VALID,96.4057,VALID,0,VALID,19.2918,VALID,117,VALID,0.600391,
2009-09-10, 00:45:04,VALID,918.088,VALID,0,VALID,96.4896,VALID,0,VALID,19.3113,VALID,117,VALID,0.717578,
2009-09-10, 00:46:04,VALID,918.076,VALID,0,VALID,96.4515,VALID,0,VALID,19.2918,VALID,117,VALID,0.690234,
2009-09-10, 00:47:04,VALID,918.093,VALID,0,VALID,96.4133,VALID,0,VALID,19.2514,VALID,117,VALID,0.648438,
2009-09-10, 00:48:04,VALID,918.09,VALID,0,VALID,96.4515,VALID,0,VALID,19.2723,VALID,117,VALID,0.690625,
2009-09-10, 00:49:04,VALID,918.116,VALID,0,VALID,96.5353,VALID,0,VALID,19.2723,VALID,117,VALID,0.637891,
2009-09-10, 00:50:04,VALID,918.116,VALID,0,VALID,96.5811,VALID,0,VALID,19.3113,VALID,117,VALID,0.800781,
2009-09-10, 00:51:04,VALID,918.1,VALID,0,VALID,96.5734,VALID,0,VALID,19.3308,VALID,117,VALID,0.576172,
2009-09-10, 00:52:04,VALID,918.141,VALID,0,VALID,96.5201,VALID,0,VALID,19.3323,VALID,117,VALID,0.507422,
2009-09-10, 00:53:04,VALID,918.129,VALID,0,VALID,96.421,VALID,0,VALID,19.3113,VALID,117,VALID,0.90625,
2009-09-10, 00:54:04,VALID,918.096,VALID,0,VALID,96.4896,VALID,0,VALID,19.3113,VALID,117,VALID,0.735937,
2009-09-10, 00:55:04,VALID,918.106,VALID,0,VALID,96.3295,VALID,0,VALID,19.2918,VALID,117,VALID,0.570703,
2009-09-10, 00:56:04,VALID,918.084,VALID,0,VALID,96.2304,VALID,0,VALID,19.2918,VALID,117,VALID,0.569922,
2009-09-10, 00:57:04,VALID,918.118,VALID,0,VALID,96.2456,VALID,0,VALID,19.2918,VALID,117,VALID,0.594531,
2009-09-10, 00:58:04,VALID,918.135,VALID,0,VALID,95.7577,VALID,0,VALID,19.2139,VALID,117,VALID,0.405078,
2009-09-10, 00:59:04,VALID,918.126,VALID,0,VALID,95.7501,VALID,0,VALID,19.1554,VALID,117,VALID,0.300781,
2009-09-10, 01:00:04,VALID,918.135,VALID,0,VALID,95.5976,VALID,0,VALID,19.1359,VALID,117,VALID,0.230469,
2009-09-10, 01:01:04,VALID,918.163,VALID,0,VALID,95.5367,VALID,0,VALID,19.0774,VALID,117,VALID,0,
2009-09-10, 01:02:04,VALID,918.151,VALID,0,VALID,95.7349,VALID,0,VALID,19.0774,VALID,117,VALID,0.0859375,
2009-09-10, 01:03:04,VALID,918.125,VALID,0,VALID,95.9254,VALID,0,VALID,19.1359,VALID,117,VALID,0.2375,
2009-09-10, 01:04:04,VALID,918.106,VALID,0,VALID,96.0474,VALID,0,VALID,19.1749,VALID,117,VALID,0,
2009-09-10, 01:05:04,VALID,918.075,VALID,0,VALID,95.7501,VALID,0,VALID,19.1749,VALID,117,VALID,0.174219,
2009-09-10, 01:06:04,VALID,918.031,VALID,0,VALID,95.5443,VALID,0,VALID,19.1554,VALID,117,VALID,0.250781,
2009-09-10, 01:07:04,VALID,917.998,VALID,0,VALID,95.6739,VALID,0,VALID,19.1554,VALID,117,VALID,0.130859,
2009-09-10, 01:08:04,VALID,917.974,VALID,0,VALID,95.6662,VALID,0,VALID,19.1554,VALID,117,VALID,0.13125,
2009-09-10, 01:09:04,VALID,917.92,VALID,0,VALID,95.773,VALID,0,VALID,19.1749,VALID,117,VALID,0.00351562,
2009-09-10, 01:10:04,VALID,917.905,VALID,0,VALID,95.9788,VALID,0,VALID,19.2139,VALID,117,VALID,0.215625,
2009-09-10, 01:11:04,VALID,917.924,VALID,0,VALID,95.6739,VALID,0,VALID,19.1944,VALID,117,VALID,0.285156,
2009-09-10, 01:12:04,VALID,917.9,VALID,0,VALID,95.8645,VALID,0,VALID,19.2334,VALID,117,VALID,0.277734,
2009-09-10, 01:13:04,VALID,917.907,VALID,0,VALID,96.0169,VALID,0,VALID,19.2723,VALID,117,VALID,0.322266,
2009-09-10, 01:14:04,VALID,917.906,VALID,0,VALID,95.9178,VALID,0,VALID,19.2918,VALID,117,VALID,0.0546875,
2009-09-10, 01:15:04,VALID,917.88,VALID,0,VALID,95.7272,VALID,0,VALID,19.2738,VALID,117,VALID,0,
2009-09-10, 01:16:04,VALID,917.881,VALID,0,VALID,95.651,VALID,0,VALID,19.2738,VALID,117,VALID,0,
2009-09-10, 01:17:04,VALID,917.883,VALID,0,VALID,95.6205,VALID,0,VALID,19.2528,VALID,117,VALID,0,
2009-09-10, 01:18:04,VALID,917.873,VALID,0,VALID,95.3994,VALID,0,VALID,19.2334,VALID,117,VALID,0,
2009-09-10, 01:19:04,VALID,917.87,VALID,0,VALID,95.0183,VALID,0,VALID,19.1944,VALID,117,VALID,0,
2009-09-10, 01:20:04,VALID,917.872,VALID,0,VALID,94.7743,VALID,0,VALID,19.1344,VALID,117,VALID,0.384375,
2009-09-10, 01:21:04,VALID,917.874,VALID,0,VALID,94.9573,VALID,0,VALID,19.1164,VALID,117,VALID,0.510938,
2009-09-10, 01:22:04,VALID,917.824,VALID,0,VALID,95.6434,VALID,0,VALID,19.1359,VALID,117,VALID,0.751172,
2009-09-10, 01:23:04,VALID,917.811,VALID,0,VALID,96.0322,VALID,0,VALID,19.1749,VALID,117,VALID,0.773828,
2009-09-10, 01:24:04,VALID,917.794,VALID,0,VALID,96.1008,VALID,0,VALID,19.1359,VALID,117,VALID,0.906641,
2009-09-10, 01:25:04,VALID,917.787,VALID,0,VALID,96.3219,VALID,0,VALID,19.1749,VALID,117,VALID,0.885547,
2009-09-10, 01:26:04,VALID,917.806,VALID,0,VALID,96.4515,VALID,0,VALID,19.1944,VALID,117,VALID,0.876953,
2009-09-10, 01:27:04,VALID,917.828,VALID,0,VALID,96.5658,VALID,0,VALID,19.2528,VALID,117,VALID,0.962109,
2009-09-10, 01:28:04,VALID,917.844,VALID,0,VALID,96.4057,VALID,0,VALID,19.2334,VALID,117,VALID,1.01406,
2009-09-10, 01:29:04,VALID,917.857,VALID,0,VALID,96.2914,VALID,0,VALID,19.1944,VALID,117,VALID,0.917188,
2009-09-10, 01:30:04,VALID,917.881,VALID,0,VALID,96.2075,VALID,0,VALID,19.1554,VALID,117,VALID,1.15,
2009-09-10, 01:31:04,VALID,917.861,VALID,0,VALID,96.0245,VALID,0,VALID,19.0969,VALID,117,VALID,0.995313,
2009-09-10, 01:32:04,VALID,917.83,VALID,0,VALID,95.9254,VALID,0,VALID,19.0384,VALID,117,VALID,1.07773,
2009-09-10, 01:33:04,VALID,917.865,VALID,0,VALID,95.7577,VALID,0,VALID,18.9799,VALID,117,VALID,1.13164,
2009-09-10, 01:34:04,VALID,917.824,VALID,0,VALID,95.6357,VALID,0,VALID,18.9214,VALID,117,VALID,0.752734,
2009-09-10, 01:35:04,VALID,917.842,VALID,0,VALID,95.8035,VALID,0,VALID,18.9214,VALID,117,VALID,0.860156,
2009-09-10, 01:36:04,VALID,917.768,VALID,0,VALID,95.834,VALID,0,VALID,18.8629,VALID,117,VALID,0.9125,
2009-09-10, 01:37:04,VALID,917.783,VALID,0,VALID,95.8873,VALID,0,VALID,18.824,VALID,117,VALID,0.923047,
2009-09-10, 01:38:04,VALID,917.749,VALID,0,VALID,95.7882,VALID,0,VALID,18.7864,VALID,117,VALID,0.662109,
2009-09-10, 01:39:04,VALID,917.755,VALID,0,VALID,95.7882,VALID,0,VALID,18.707,VALID,117,VALID,0.721094,
2009-09-10, 01:40:04,VALID,917.763,VALID,0,VALID,96.0779,VALID,0,VALID,18.6875,VALID,117,VALID,1.01953,
2009-09-10, 01:41:04,VALID,917.739,VALID,0,VALID,96.1618,VALID,0,VALID,18.668,VALID,117,VALID,0.750781,
2009-09-10, 01:42:04,VALID,917.744,VALID,0,VALID,96.36,VALID,0,VALID,18.6485,VALID,117,VALID,0.95625,
2009-09-10, 01:43:04,VALID,917.72,VALID,0,VALID,96.5887,VALID,0,VALID,18.668,VALID,117,VALID,0.675781,
2009-09-10, 01:44:04,VALID,917.7,VALID,0,VALID,96.6954,VALID,0,VALID,18.707,VALID,117,VALID,0.4375,
2009-09-10, 01:45:04,VALID,917.702,VALID,0,VALID,96.6802,VALID,0,VALID,18.7084,VALID,117,VALID,0.381641,
2009-09-10, 01:46:04,VALID,917.681,VALID,0,VALID,96.7183,VALID,0,VALID,18.6875,VALID,117,VALID,0.161719,
2009-09-10, 01:47:04,VALID,917.658,VALID,0,VALID,96.7716,VALID,0,VALID,18.6666,VALID,117,VALID,0.174219,
2009-09-10, 01:48:04,VALID,917.634,VALID,0,VALID,96.764,VALID,0,VALID,18.6875,VALID,117,VALID,0.0234375,
2009-09-10, 01:49:04,VALID,917.631,VALID,0,VALID,96.8098,VALID,0,VALID,18.6875,VALID,117,VALID,0,
2009-09-10, 01:50:04,VALID,917.621,VALID,0,VALID,96.8784,VALID,0,VALID,18.7279,VALID,117,VALID,0,
2009-09-10, 01:51:04,VALID,917.625,VALID,0,VALID,96.764,VALID,0,VALID,18.6875,VALID,117,VALID,0,
2009-09-10, 01:52:04,VALID,917.607,VALID,0,VALID,96.703,VALID,0,VALID,18.6485,VALID,117,VALID,0,
2009-09-10, 01:53:04,VALID,917.599,VALID,0,VALID,96.5963,VALID,0,VALID,18.59,VALID,117,VALID,0,
2009-09-10, 01:54:04,VALID,917.604,VALID,0,VALID,96.6573,VALID,0,VALID,18.5316,VALID,117,VALID,0,
2009-09-10, 01:55:04,VALID,917.593,VALID,0,VALID,96.6573,VALID,0,VALID,18.4926,VALID,117,VALID,0.416016,
2009-09-10, 01:56:04,VALID,917.616,VALID,0,VALID,96.7259,VALID,0,VALID,18.4536,VALID,117,VALID,0.778125,
2009-09-10, 01:57:04,VALID,917.633,VALID,0,VALID,96.764,VALID,0,VALID,18.4341,VALID,117,VALID,1.03711,
2009-09-10, 01:58:04,VALID,917.689,VALID,0,VALID,96.8174,VALID,0,VALID,18.4146,VALID,117,VALID,1.08359,
2009-09-10, 01:59:04,VALID,917.736,VALID,0,VALID,96.6954,VALID,0,VALID,18.3352,VALID,117,VALID,0.984766,
2009-09-10, 02:00:04,VALID,917.726,VALID,0,VALID,97.0918,VALID,0,VALID,18.4926,VALID,117,VALID,1.63398,
2009-09-10, 02:01:04,VALID,917.748,VALID,0,VALID,97.1223,VALID,0,VALID,18.5316,VALID,117,VALID,1.53906,
2009-09-10, 02:02:04,VALID,917.817,VALID,0,VALID,97.1147,VALID,0,VALID,18.5316,VALID,117,VALID,1.63867,
2009-09-10, 02:03:04,VALID,917.789,VALID,0,VALID,97.1223,VALID,0,VALID,18.572,VALID,133,VALID,1.4957,
2009-09-10, 02:04:04,VALID,917.781,VALID,0,VALID,97.1299,VALID,0,VALID,18.5705,VALID,138,VALID,1.38828,
2009-09-10, 02:05:04,VALID,917.753,VALID,0,VALID,97.1223,VALID,0,VALID,18.59,VALID,112,VALID,1.075,
2009-09-10, 02:06:04,VALID,917.739,VALID,0,VALID,97.1986,VALID,0,VALID,18.6485,VALID,137,VALID,1.11641,
2009-09-10, 02:07:04,VALID,917.71,VALID,0,VALID,97.2443,VALID,0,VALID,18.7655,VALID,134,VALID,0.586719,
2009-09-10, 02:08:04,VALID,917.645,VALID,0,VALID,97.2138,VALID,0,VALID,18.7864,VALID,122,VALID,1.16484,
2009-09-10, 02:09:04,VALID,917.598,VALID,0,VALID,97.2443,VALID,0,VALID,18.8045,VALID,165,VALID,0.619141,
2009-09-10, 02:10:04,VALID,917.552,VALID,0,VALID,97.1833,VALID,0,VALID,18.8045,VALID,165,VALID,0.641797,
2009-09-10, 02:11:04,VALID,917.503,VALID,0,VALID,97.1299,VALID,0,VALID,18.7864,VALID,165,VALID,0.459766,
2009-09-10, 02:12:04,VALID,917.475,VALID,0,VALID,97.0918,VALID,0,VALID,18.746,VALID,165,VALID,0.487109,
2009-09-10, 02:13:04,VALID,917.452,VALID,0,VALID,97.1452,VALID,0,VALID,18.746,VALID,165,VALID,0.531641,
2009-09-10, 02:14:04,VALID,917.432,VALID,0,VALID,97.1681,VALID,0,VALID,18.7655,VALID,165,VALID,0.458984,
2009-09-10, 02:15:04,VALID,917.384,VALID,0,VALID,97.1604,VALID,0,VALID,18.746,VALID,165,VALID,0.180078,
2009-09-10, 02:16:04,VALID,917.365,VALID,0,VALID,97.1833,VALID,0,VALID,18.7655,VALID,165,VALID,0,
2009-09-10, 02:17:04,VALID,917.372,VALID,0,VALID,97.0766,VALID,0,VALID,18.7265,VALID,165,VALID,0,
2009-09-10, 02:18:04,VALID,917.351,VALID,0,VALID,97.1071,VALID,0,VALID,18.6889,VALID,165,VALID,0.219531,
2009-09-10, 02:19:04,VALID,917.354,VALID,0,VALID,97.0766,VALID,0,VALID,18.6304,VALID,165,VALID,0.59375,
2009-09-10, 02:20:04,VALID,917.349,VALID,0,VALID,97.0461,VALID,0,VALID,18.5705,VALID,165,VALID,0.788281,
2009-09-10, 02:21:04,VALID,917.357,VALID,0,VALID,97.0918,VALID,0,VALID,18.5121,VALID,165,VALID,0.894922,
2009-09-10, 02:22:04,VALID,917.336,VALID,0,VALID,97.1071,VALID,0,VALID,18.4912,VALID,165,VALID,1.13086,
2009-09-10, 02:23:04,VALID,917.362,VALID,0,VALID,97.1299,VALID,0.107441,VALID,18.4912,VALID,165,VALID,1.07344,
2009-09-10, 02:24:04,VALID,917.343,VALID,0,VALID,97.1528,VALID,0,VALID,18.4731,VALID,165,VALID,1.0332,
2009-09-10, 02:25:04,VALID,917.377,VALID,0,VALID,97.3053,VALID,0,VALID,18.59,VALID,164,VALID,1.4875,
2009-09-10, 02:26:04,VALID,917.388,VALID,0,VALID,97.3053,VALID,0,VALID,18.5886,VALID,162,VALID,1.17227,
2009-09-10, 02:27:04,VALID,917.392,VALID,0,VALID,97.3129,VALID,0,VALID,18.629,VALID,128,VALID,1.01953,
2009-09-10, 02:28:04,VALID,917.397,VALID,0,VALID,97.3053,VALID,0,VALID,18.6485,VALID,128,VALID,0.835938,
2009-09-10, 02:29:04,VALID,917.402,VALID,0,VALID,97.3358,VALID,0,VALID,18.6875,VALID,128,VALID,1.22109,
2009-09-10, 02:30:04,VALID,917.419,VALID,0,VALID,97.29,VALID,0.107441,VALID,18.6666,VALID,128,VALID,1.23945,
2009-09-10, 02:31:04,VALID,917.428,VALID,0,VALID,97.3053,VALID,0,VALID,18.6666,VALID,128,VALID,1.20898,
2009-09-10, 02:32:04,VALID,917.378,VALID,0,VALID,97.29,VALID,0,VALID,18.707,VALID,128,VALID,1.27773,
2009-09-10, 02:33:04,VALID,917.422,VALID,0,VALID,97.2748,VALID,0,VALID,18.707,VALID,128,VALID,0.909766,
2009-09-10, 02:34:04,VALID,917.428,VALID,0,VALID,97.2977,VALID,0,VALID,18.6861,VALID,128,VALID,0.823047,
2009-09-10, 02:35:04,VALID,917.438,VALID,0,VALID,97.3205,VALID,0,VALID,18.7251,VALID,128,VALID,0.887109,
2009-09-10, 02:36:04,VALID,917.484,VALID,0,VALID,97.2748,VALID,0.107441,VALID,18.7251,VALID,128,VALID,0.815234,
2009-09-10, 02:37:04,VALID,917.449,VALID,0,VALID,97.2519,VALID,0.107441,VALID,18.7265,VALID,128,VALID,0.902344,
2009-09-10, 02:38:04,VALID,917.5,VALID,0,VALID,97.2748,VALID,0.107441,VALID,18.7056,VALID,128,VALID,1.075,
2009-09-10, 02:39:04,VALID,917.5,VALID,0,VALID,97.2519,VALID,0,VALID,18.6861,VALID,128,VALID,1.12188,
2009-09-10, 02:40:04,VALID,917.527,VALID,0,VALID,97.2595,VALID,0.107441,VALID,18.6861,VALID,128,VALID,1.11641,
2009-09-10, 02:41:04,VALID,917.565,VALID,0,VALID,97.2519,VALID,0,VALID,18.668,VALID,128,VALID,1.25195,
2009-09-10, 02:42:04,VALID,917.545,VALID,0,VALID,97.2519,VALID,0,VALID,18.668,VALID,128,VALID,1.04062,
2009-09-10, 02:43:04,VALID,917.552,VALID,0,VALID,97.2443,VALID,0,VALID,18.6276,VALID,128,VALID,1.12266,
2009-09-10, 02:44:04,VALID,917.578,VALID,0,VALID,97.2595,VALID,0,VALID,18.6276,VALID,128,VALID,0.96875,
2009-09-10, 02:45:04,VALID,917.586,VALID,0,VALID,97.2672,VALID,0.107441,VALID,18.629,VALID,128,VALID,0.770703,
2009-09-10, 02:46:04,VALID,917.591,VALID,0,VALID,97.2214,VALID,0,VALID,18.5886,VALID,128,VALID,0.801562,
2009-09-10, 02:47:04,VALID,917.607,VALID,0,VALID,97.3281,VALID,0.107441,VALID,18.5886,VALID,128,VALID,1.11875,
2009-09-10, 02:48:04,VALID,917.596,VALID,0,VALID,97.3205,VALID,0.107441,VALID,18.629,VALID,128,VALID,0.982031,
2009-09-10, 02:49:04,VALID,917.637,VALID,0,VALID,97.2824,VALID,0,VALID,18.6095,VALID,128,VALID,0.936719,
2009-09-10, 02:50:04,VALID,917.611,VALID,0,VALID,97.2824,VALID,0,VALID,18.6095,VALID,128,VALID,0.733594,
2009-09-10, 02:51:04,VALID,917.61,VALID,0,VALID,97.2748,VALID,0.107441,VALID,18.5496,VALID,128,VALID,0.596484,
2009-09-10, 02:52:04,VALID,917.584,VALID,0,VALID,97.29,VALID,0,VALID,18.5511,VALID,128,VALID,0.530469,
2009-09-10, 02:53:04,VALID,917.593,VALID,0,VALID,97.2977,VALID,0,VALID,18.5511,VALID,128,VALID,0.585156,
2009-09-10, 02:54:05,VALID,917.598,VALID,0,VALID,97.3053,VALID,0,VALID,18.572,VALID,128,VALID,0.537109,
2009-09-10, 02:55:05,VALID,917.596,VALID,0,VALID,97.2977,VALID,0,VALID,18.5511,VALID,128,VALID,0.588672,
2009-09-10, 02:56:05,VALID,917.631,VALID,0,VALID,97.3129,VALID,0,VALID,18.5705,VALID,128,VALID,0.496875,
2009-09-10, 02:57:05,VALID,917.597,VALID,0,VALID,97.3129,VALID,0,VALID,18.5316,VALID,128,VALID,0.605859,
2009-09-10, 02:58:05,VALID,917.597,VALID,0,VALID,97.3281,VALID,0,VALID,18.5511,VALID,128,VALID,0.711328,
2009-09-10, 02:59:05,VALID,917.572,VALID,0,VALID,97.3434,VALID,0,VALID,18.5705,VALID,128,VALID,0.834766,
2009-09-10, 03:00:05,VALID,917.592,VALID,0,VALID,97.3205,VALID,0,VALID,18.5705,VALID,128,VALID,0.83125,
2009-09-10, 03:01:05,VALID,917.569,VALID,0,VALID,97.3053,VALID,0,VALID,18.5914,VALID,128,VALID,0.707812,
2009-09-10, 03:02:05,VALID,917.588,VALID,0,VALID,97.3281,VALID,0,VALID,18.6109,VALID,128,VALID,0.630859,
2009-09-10, 03:03:05,VALID,917.559,VALID,0,VALID,97.3281,VALID,0,VALID,18.59,VALID,128,VALID,0.426953,
2009-09-10, 03:04:05,VALID,917.566,VALID,0,VALID,97.2977,VALID,0,VALID,18.59,VALID,128,VALID,0.210156,
2009-09-10, 03:05:05,VALID,917.553,VALID,0,VALID,97.0461,VALID,0,VALID,18.4536,VALID,128,VALID,0,
2009-09-10, 03:06:05,VALID,917.55,VALID,0,VALID,97.1833,VALID,0,VALID,18.4355,VALID,128,VALID,0,
2009-09-10, 03:07:05,VALID,917.533,VALID,0,VALID,97.2672,VALID,0,VALID,18.4146,VALID,128,VALID,0,
2009-09-10, 03:08:05,VALID,917.573,VALID,0,VALID,97.2748,VALID,0,VALID,18.455,VALID,128,VALID,0,
2009-09-10, 03:09:05,VALID,917.562,VALID,0,VALID,97.29,VALID,0,VALID,18.4341,VALID,128,VALID,0,
2009-09-10, 03:10:05,VALID,917.576,VALID,0,VALID,97.2977,VALID,0,VALID,18.4146,VALID,128,VALID,0,
2009-09-10, 03:11:05,VALID,917.58,VALID,0,VALID,97.3358,VALID,0,VALID,18.4745,VALID,128,VALID,0,
2009-09-10, 03:12:05,VALID,917.562,VALID,0,VALID,97.3586,VALID,0,VALID,18.5135,VALID,128,VALID,0,
2009-09-10, 03:13:05,VALID,917.583,VALID,0,VALID,97.2977,VALID,0,VALID,18.4926,VALID,128,VALID,0,
2009-09-10, 03:14:05,VALID,917.595,VALID,0,VALID,97.2367,VALID,0,VALID,18.494,VALID,128,VALID,0,
2009-09-10, 03:15:05,VALID,917.563,VALID,0,VALID,97.2138,VALID,0,VALID,18.4146,VALID,128,VALID,0,
2009-09-10, 03:16:05,VALID,917.521,VALID,0,VALID,97.1452,VALID,0,VALID,18.3575,VALID,128,VALID,0,
2009-09-10, 03:17:05,VALID,917.54,VALID,0,VALID,97.1223,VALID,0,VALID,18.2796,VALID,128,VALID,0.0890625,
2009-09-10, 03:18:05,VALID,917.532,VALID,0,VALID,97.069,VALID,0,VALID,18.2406,VALID,128,VALID,0.336328,
2009-09-10, 03:19:05,VALID,917.527,VALID,0,VALID,96.9698,VALID,0,VALID,18.1417,VALID,128,VALID,0.134375,
2009-09-10, 03:20:05,VALID,917.557,VALID,0,VALID,97.1223,VALID,0,VALID,18.1222,VALID,128,VALID,0,
2009-09-10, 03:21:05,VALID,917.533,VALID,0,VALID,97.2443,VALID,0,VALID,18.1612,VALID,128,VALID,0,
2009-09-10, 03:22:05,VALID,917.544,VALID,0,VALID,97.3281,VALID,0,VALID,18.2406,VALID,128,VALID,0,
2009-09-10, 03:23:05,VALID,917.526,VALID,0,VALID,97.3663,VALID,0,VALID,18.2587,VALID,128,VALID,0,
2009-09-10, 03:24:05,VALID,917.508,VALID,0,VALID,97.3663,VALID,0,VALID,18.338,VALID,128,VALID,0,
2009-09-10, 03:25:05,VALID,917.499,VALID,0,VALID,97.3358,VALID,0,VALID,18.338,VALID,128,VALID,0,
2009-09-10, 03:26:05,VALID,917.451,VALID,0,VALID,97.1071,VALID,0,VALID,18.2406,VALID,128,VALID,0,
2009-09-10, 03:27:05,VALID,917.449,VALID,0,VALID,97.1528,VALID,0,VALID,18.1807,VALID,128,VALID,0,
2009-09-10, 03:28:05,VALID,917.414,VALID,0,VALID,97.2138,VALID,0,VALID,18.1807,VALID,128,VALID,0,
2009-09-10, 03:29:05,VALID,917.394,VALID,0,VALID,97.0003,VALID,0,VALID,18.1417,VALID,128,VALID,0,
2009-09-10, 03:30:05,VALID,917.372,VALID,0,VALID,96.9775,VALID,0,VALID,18.0457,VALID,128,VALID,0,
2009-09-10, 03:31:05,VALID,917.314,VALID,0,VALID,97.0308,VALID,0,VALID,17.9858,VALID,128,VALID,0,
2009-09-10, 03:32:05,VALID,917.291,VALID,0,VALID,97.0994,VALID,0,VALID,18.0262,VALID,128,VALID,0,
2009-09-10, 03:33:05,VALID,917.243,VALID,0,VALID,97.1986,VALID,0,VALID,18.0053,VALID,128,VALID,0,
2009-09-10, 03:34:05,VALID,917.277,VALID,0,VALID,97.2367,VALID,0,VALID,18.0651,VALID,128,VALID,0,
2009-09-10, 03:35:05,VALID,917.286,VALID,0,VALID,97.3586,VALID,0,VALID,18.1236,VALID,128,VALID,0,
2009-09-10, 03:36:05,VALID,917.28,VALID,0,VALID,97.4425,VALID,0,VALID,18.2796,VALID,128,VALID,0,
2009-09-10, 03:37:05,VALID,917.322,VALID,0,VALID,97.3663,VALID,0,VALID,18.2977,VALID,128,VALID,0,
2009-09-10, 03:38:05,VALID,917.355,VALID,0,VALID,97.3281,VALID,0.107441,VALID,18.2587,VALID,128,VALID,0,
2009-09-10, 03:39:05,VALID,917.399,VALID,0,VALID,97.351,VALID,0,VALID,18.2977,VALID,128,VALID,0,
2009-09-10, 03:40:05,VALID,917.446,VALID,0,VALID,97.351,VALID,0.107441,VALID,18.3158,VALID,128,VALID,0,
2009-09-10, 03:41:05,VALID,917.448,VALID,0,VALID,97.412,VALID,0.107441,VALID,18.3742,VALID,128,VALID,0.494141,
2009-09-10, 03:42:05,VALID,917.496,VALID,0,VALID,97.4044,VALID,0,VALID,18.4536,VALID,128,VALID,0.795703,
2009-09-10, 03:43:05,VALID,917.461,VALID,0,VALID,97.3968,VALID,0.107441,VALID,18.4926,VALID,128,VALID,0.944922,
2009-09-10, 03:44:05,VALID,917.495,VALID,0,VALID,97.1986,VALID,0,VALID,18.3742,VALID,128,VALID,0.998047,
2009-09-10, 03:45:05,VALID,917.511,VALID,0,VALID,97.2214,VALID,0,VALID,18.3561,VALID,128,VALID,1.37617,
2009-09-10, 03:46:05,VALID,917.518,VALID,0,VALID,97.3053,VALID,0,VALID,18.4146,VALID,128,VALID,1.27383,
2009-09-10, 03:47:05,VALID,917.514,VALID,0,VALID,97.2214,VALID,0,VALID,18.3561,VALID,128,VALID,1.2793,